Location: Abades
(40.9165°N, 4.2694°W)
Time: 04:46:24
(UTC+00:00)

Daily predictions for brighter satellites

Satellite Brightness Start Highest point End
(mag) Time Altitude Azimuth Time Altitude Azimuth Time Altitude Azimuth
CZ-3 R/B 4.4 01:22:04 10° WSW 02:27:44 51° SSE 02:36:56 10° ESE
CZ-3 Stage 3 4.4 03:27:43 46° SSE 03:27:43 46° SSE 03:47:30 10° ESE
COSMOS 2455 4.2 04:07:00 34° ENE 04:07:00 34° ENE 04:11:44 10° ESE
Cosmos 372 Rocket 4.4 04:50:47 57° SE 04:50:47 57° SE 04:54:54 10° SSE
Cosmos 1937 Rocket 4.5 04:49:25 36° NNE 04:50:40 43° ENE 04:55:32 10° SE
USA 59 Rocket 1.0 04:54:18 47° ESE 04:54:18 47° ESE 04:58:19 10° SE
Aureole 1 Rocket 4.2 04:53:29 49° NNW 04:55:47 87° WSW 05:03:15 10° SSE
COSMOS 2406 3.3 04:55:16 48° S 04:56:51 75° ESE 05:02:32 10° NNE
Cosmos 2082 Rocket 3.3 05:05:01 29° N 05:05:01 29° N 05:07:54 10° NNE
NOSS 2-1 (E) 4.1 05:04:17 51° ENE 05:04:17 51° ENE 05:08:46 10° SE
SL-16 R/B 3.4 05:01:03 20° N 05:04:28 38° ENE 05:09:42 10° SE
Cosmos 1606 Rocket 3.5 05:14:42 81° SE 05:14:42 81° SE 05:18:54 10° S
NOAA 12 4.3 05:14:58 10° NNE 05:20:15 70° ESE 05:25:28 10° S
NOSS 2-1 (C) 3.3 05:22:46 87° W 05:22:48 87° WSW 05:27:52 10° SSE
BREEZE-M DEB (TANK) 3.1 05:24:36 36° NNE 05:24:36 36° NNE 05:28:52 10° E
Cosmos 1980 Rocket 3.5 05:26:44 24° SW 05:26:44 24° SW 05:29:28 10° SSW
SL-4 R/B 3.9 05:28:33 14° NNE 05:28:33 14° NNE 05:29:50 10° NE
Cosmos 2278 4.4 05:24:16 16° N 05:28:39 51° ENE 05:34:06 10° SE
Cosmos 2026 Rocket 4.0 05:25:25 10° S 05:31:27 79° E 05:37:32 10° N
FengYun 1-2 T 4.2 05:27:13 10° N 05:32:45 58° WNW 05:38:15 10° SSW
CZ-3C R/B 4.3 05:29:38 10° S 05:33:13 15° SE 05:40:39 10° ESE
Cosmos 2369 3.9 05:33:14 45° WNW 05:34:08 49° WSW 05:39:32 10° S
SWAS 4.2 05:39:03 59° WSW 05:39:09 59° WSW 05:43:06 10° S
Cosmos 1726 Rocket 3.3 05:38:11 42° NNW 05:39:30 70° W 05:43:38 10° S
Cosmos 841 Rocket 3.9 05:40:31 39° NW 05:40:31 39° NW 05:45:04 10° N
Tiangong -0.7 05:42:18 28° SSW 05:42:18 28° SSW 05:44:47 10° SE
NOSS 3-1 (C) 4.1 05:39:51 24° NW 05:44:58 77° WSW 05:54:06 10° SSE
COSMOS 2455 3.3 05:50:11 31° WNW 05:52:12 40° WSW 05:57:43 10° S
Cosmos 2360 Rocket 3.0 05:51:46 10° NNW 05:57:15 50° ENE 06:02:40 10° SE
Cosmos 1092 Rocket 3.9 05:52:01 10° SSW 05:58:17 74° W 06:04:33 10° N
Cosmos 1892 Rocket 3.8 05:54:16 10° SSW 05:58:26 44° WNW 06:02:39 10° N
Cosmos 2333 Rocket 2.4 05:53:02 11° NNW 05:58:34 76° ENE 06:04:17 10° SSE
COSMO-SKYMED 1 2.4 06:01:09 10° S 06:05:13 61° W 06:08:59 12° NNW
CZ-3 R/B 4.3 05:56:29 14° W 06:05:22 21° SW 06:11:49 10° S
Cosmos-2242 2.8 06:01:15 10° N 06:05:29 85° W 06:09:39 10° S
Meteor 2-2 Rocket 4.2 05:59:49 10° N 06:05:33 86° W 06:11:22 10° S
BREEZE-M DEB (TANK) 3.7 06:06:10 10° SW 06:08:49 40° SE 06:11:07 10° ENE
BREEZE-M DEB (TANK) 4.2 06:09:52 20° W 06:13:14 35° SW 06:16:23 10° SSE
Cosmos 2219 Rocket 3.3 06:09:20 10° N 06:14:41 41° ENE 06:19:58 10° SE
IRS-1D 4.1 06:10:55 10° N 06:15:21 32° WNW 06:19:50 10° SW
Cosmos 2322 Rocket 2.2 06:15:01 10° NNW 06:20:44 87° ENE 06:26:24 10° SSE
Meteor 2-6 Rocket 4.5 06:21:42 10° N 06:27:41 82° E 06:33:36 10° SSE
IGS 5A 3.3 06:26:04 10° N 06:30:02 63° WNW 06:33:58 10° SSW
Cosmos 1484 Rocket 2.7 06:27:57 10° N 06:31:12 42° WNW 06:34:22 10° SW
Cosmos 1602 Rocket 4.0 06:27:52 10° S 06:32:15 67° E 06:36:41 10° NNE
ATLAS 2AS CENTAUR R/B 3.1 06:25:37 10° SSW 06:32:41 73° ESE 06:39:35 10° NE
Cosmos 1437 Rocket 4.2 06:32:13 10° N 06:35:22 33° ENE 06:38:32 10° SE
SL-08 ROCKET BODY 4.3 06:30:40 10° SSW 06:36:29 74° W 06:42:20 10° N
Cosmos 2058 Rocket 3.7 06:33:16 10° NNW 06:37:16 33° W 06:41:12 10° SSW
Cosmos 1743 2.1 06:34:38 10° S 06:37:51 80° W 06:41:06 10° N
Cosmos 2333 4.3 06:32:54 10° NNW 06:38:41 86° ENE 06:44:21 10° SSE
USA 59 Rocket 2.0 06:40:01 11° W 06:42:09 14° WSW 06:44:50 10° SSW
ARIANE 5 R/B 3.2 06:38:32 10° NNE 06:43:42 61° ESE 06:48:50 10° S
Helios 1A Rocket 4.0 06:44:46 10° SW 06:47:02 17° W 06:49:19 10° NW
SL-16 R/B 3.0 06:43:30 10° NW 06:48:24 31° WSW 06:53:16 10° SSW
Okean 1 4.1 06:46:37 10° NW 06:49:31 24° W 06:52:26 10° SW
COSMOS 2428 4.4 06:46:58 10° N 06:51:57 30° NE 06:56:55 10° ESE
NOSS 3-1 (A) 4.3 06:45:33 10° NW 06:53:02 62° WSW 07:02:04 10° SSE
MOS 1 Rocket 3.8 06:56:11 10° NNE 07:01:35 83° ESE 07:06:48 10° S
